Overview Statistics Trail Chart Weather Telemetry Raw packets
 

This is the latest recevied weather packets stored in our database for station/object 9A7DI-13. If no packets are shown the sender has not sent any weather packets the latest 10 day(s).

<< 4 5 6 7 8 9 10 >>
Time Temp. Humidity Pressure Rain* Wind** Luminosity Snow
1788584200 15.56° C 83% 1023.7 hPa - - - -
1788583600 15.56° C 82% 1023.7 hPa - - - -
1788583000 15.56° C 82% 1023.7 hPa - - - -
1788582400 15.56° C 79% 1023.5 hPa - - - -
1788581823 15.56° C 83% 1023.5 hPa - - - -
1788581200 15° C 84% 1023.5 hPa - - - -
1788580600 15° C 82% 1023.4 hPa - - - -
1788580000 15.56° C 81% 1023.4 hPa - - - -
1788579400 15.56° C 82% 1023.3 hPa - - - -
1788578800 15.56° C 82% 1023.2 hPa - - - -
1788578200 15.56° C 81% 1023.3 hPa - - - -
1788577600 15.56° C 79% 1023.3 hPa - - - -
1788577000 16.11° C 78% 1023.3 hPa - - - -
1788576400 16.11° C 79% 1023.3 hPa - - - -
1788575800 16.11° C 78% 1023.3 hPa - - - -
1788575200 16.11° C 77% 1023.3 hPa - - - -
1788574600 16.11° C 77% 1023.3 hPa - - - -
1788574000 16.67° C 78% 1023.4 hPa - - - -
1788573400 16.11° C 80% 1023.5 hPa - - - -
1788572800 16.11° C 79% 1023.5 hPa - - - -
1788572200 16.11° C 81% 1023.5 hPa - - - -
1788571600 16.67° C 78% 1023.5 hPa - - - -
1788571000 16.67° C 77% 1023.5 hPa - - - -
1788570400 16.67° C 77% 1023.5 hPa - - - -
1788569800 17.22° C 76% 1023.5 hPa - - - -

* Rain since midnight (hover to see other rain measurements)
** Current wind speed in m/s (hover to see current wind gust speed)